Regional Weather Roundup
Issued by NWS Kansas City/Pleasant Hill, MO

Home | Current Version | Previous Version | Graphics & Text | Print | Product List | Glossary Off
Versions: 1 2 3 4 5 6 7 8 9 10 11 12 13 14 15 16 17 18 19 20 21 22 23 24 25 26 27 28 29 30 31 32 33 34 35 36 37 38 39 40 41 42 43 44 45 46 47 48 49 50

299
ASUS43 KEAX 281010
RWREAX

WEATHER ROUNDUP FOR EASTERN KANSAS AND NORTHWEST MISSOURI
NATIONAL WEATHER SERVICE KANSAS CITY/PLEASANT HILL MO
500 AM CDT SUN MAY 28 2017

KSZ040-057-103>105-MOZ028-029-037-043-281100-
...KANSAS CITY METROPOLITAN AREA...

CITY           SKY/WX    TMP DP  RH WIND       PRES   REMARKS
K.C. INTL      PTCLDY    58  57  97 NW8       29.86F
K.C. DOWNTOWN  CLOUDY    61  59  93 NW5       29.85F
LEES SUMMIT    CLOUDY    60  60 100 NW8       29.85F
OLATHE - IXD   CLOUDY    59  58  96 NW9       29.86F
OLATHE - OJC   CLOUDY    59  59 100 NW8       29.85F
LAWRENCE       CLEAR     59  58  96 NW8       29.87F

$$

MOZ001>008-011>017-020>025-030>033-038>040-044>046-053-054-281100-
...NORTHERN AND CENTRAL MISSOURI...

CITY           SKY/WX    TMP DP  RH WIND       PRES   REMARKS
ST. JOSEPH     CLEAR     59  58  96 N9        29.87F
MOSBY          CLOUDY    59  59 100 NW7       29.85F
WARRENSBURG    CLOUDY    61  57  88 NW6       29.84S
WHITEMAN AFB   CLOUDY    61  61 100 NW8       29.83R
CLINTON        CLOUDY    63  63 100 N6        29.84S
SEDALIA        CLOUDY    63  63 100 NW10      29.84R
WARSAW         NOT AVBL
CHILLICOTHE      N/A     58  55  90 CALM      29.85S
KIRKSVILLE     CLOUDY    58  56  93 NW8       29.81F

$$

MOZ041-047>049-056>058-063>065-088>090-097-281100-
...EASTERN AND SOUTHERN MISSOURI...

CITY           SKY/WX    TMP DP  RH WIND       PRES   REMARKS
ST. LOUIS INTL CLOUDY    65  60  84 W7        29.77R
SPIRIT OF STL  CLOUDY    61  60  97 CALM      29.76S
COLUMBIA       CLOUDY    60  60 100 NW6       29.79R
JEFFERSON CITY CLOUDY    62  59  90 CALM      29.78F
ROLLA          CLOUDY    57  57 100 CALM      29.77F
OSAGE BEACH    FOG       60  60 100 W5        29.81R VSB 1/4
SPRINGFIELD    CLOUDY    63  62  97 N10       29.80F
BRANSON        CLOUDY    63  63 100 CALM      29.85R
JOPLIN         CLOUDY    64  62  93 N6        29.81F
WEST PLAINS    CLOUDY    62  61  96 SW5       29.84R

$$

IAZ060-094-KSZ022-034>040-054-083-096-NEZ052-066-093-281100-
...KANSAS...SOUTHEAST NEBRASKA AND IOWA...

CITY           SKY/WX    TMP DP  RH WIND       PRES   REMARKS
TOPEKA         CLEAR     60  59  96 NW7       29.88F
MANHATTAN      PTCLDY    57  55  93 CALM      29.93F
EMPORIA        CLEAR     60  59  96 N9        29.88F
CHANUTE        CLOUDY    63  59  87 N10       29.85S
WICHITA        PTCLDY    61  57  87 N13       29.93R
OMAHA          PTCLDY    53  48  83 SE6       29.88F
LINCOLN        CLEAR     56  51  84 W3        29.93S
FALLS CITY     CLEAR     57  55  93 NW9       29.89F
LAMONI         CLEAR     56  54  93 NW7       29.85F
DES MOINES     PTCLDY    57  54  89 W6        29.84F

$$





USA.gov is the U.S. government's official web portal to all federal, state and local government web resources and services.